Location: Chuathbaluk
(61.5726°N, 159.2454°W)
Time: 07:54:00
(UTC+00:00)

NUDT-PHONESAT - Pass Details

Date: 24 January 2021
Orbit: 479 x 498 km, 97.4° (Epoch: 08 March)

Event Time Altitude Azimuth Distance (km) Brightness Sun altitude
Rises 16:50:25 0° 21° (NNE) 2,613 ? -16.5°
Reaches altitude 10° 16:52:43 10° 32° (NNE) 1,724 ? -16.3°
Maximum altitude 16:56:00 29° 94° (E) 948 ? -15.9°
Drops below altitude 10° 16:59:15 10° 157° (SSE) 1,708 ? -15.5°
Sets 17:01:31 0° 168° (SSE) 2,584 ? -15.2°
